Sheldon, IA

10:03 AM CST on January 18, 2018 (GMT -0600)
Sheldon Municipal

Weather History for KSHL - January, 2013

Change the Weather History Date:

Friday, January 25, 2013

  Actual Average Record
Temperature  
Mean Temperature 16 °F -  
Max Temperature 28 °F 23 °F 57 °F (2002)
Min Temperature 5 °F 5 °F -18 °F (1961)
Degree Days  
Heating Degree Days 48    
Moisture  
Dew Point 9 °F    
Average Humidity 73    
Maximum Humidity 93    
Minimum Humidity 58    
Precipitation  
Precipitation 0.00 in - - ()
Sea Level Pressure  
Sea Level Pressure 30.12 in    
Wind  
Wind Speed 11 mph (WNW)    
Max Wind Speed 24 mph    
Max Gust Speed 30 mph    
Visibility 10 miles    
Events      
Averages and records for this station are not official NWS values.
T = Trace of Precipitation, MM = Missing Value Source: NWS Daily Summary

Daily Weather History Graph

Daily Weather History Graph

Search for Another Location

Airport or City:

Trip Planner

Search our weather history database for the weather conditions in past years. The results will help you decide how hot, cold, wet, or windy it might be!

Date:

Astronomy

Jan. 25, 2013 Rise Set
Actual Time 7:45 AM CST 5:26 PM CST
Civil Twilight 7:14 AM CST 5:57 PM CST
Nautical Twilight 6:40 AM CST 6:31 PM CST
Astronomical Twilight 6:06 AM CST 7:05 PM CST
Moon 4:24 PM CST (1/25) 6:25 AM CST (1/25)
Length of Visible Light 10h 42m
Length of Day
9h 41m
Waxing Gibbous, 98% of the Moon is Illuminated
Jan 25
Waxing Gibbous
Jan 26
Full
Feb 3
Last Quarter
Feb 10
New
Feb 17
First Quarter

Hourly Weather History & Observations

Time (CST) Temp. Windchill Dew Point Humidity Pressure Visibility Wind Dir Wind Speed Gust Speed Precip Events Conditions
12:15 AM 15.8 °F 2.1 °F 5.0 °F 62% 30.07 in 10.0 mi SSW 12.7 mph 27.6 mph N/A   Mostly Cloudy
12:35 AM 15.8 °F 2.7 °F 5.0 °F 62% 30.09 in 10.0 mi SW 11.5 mph 20.7 mph N/A   Partly Cloudy
12:55 AM 15.8 °F 2.7 °F 5.0 °F 62% 30.08 in 10.0 mi SSW 11.5 mph - N/A   Clear
1:15 AM 15.8 °F 4.2 °F 5.0 °F 62% 30.08 in 10.0 mi SSW 9.2 mph - N/A   Clear
1:35 AM 14.0 °F -0.2 °F 5.0 °F 67% 30.07 in 10.0 mi SSW 12.7 mph - N/A   Clear
1:55 AM 14.0 °F 2.0 °F 5.0 °F 67% 30.06 in 10.0 mi SSW 9.2 mph - N/A   Clear
2:15 AM 14.0 °F 2.9 °F 5.0 °F 67% 30.06 in 10.0 mi SSW 8.1 mph - N/A   Clear
2:35 AM 14.0 °F 0.5 °F 5.0 °F 67% 30.04 in 10.0 mi SSW 11.5 mph - N/A   Clear
2:55 AM 14.0 °F 1.2 °F 5.0 °F 67% 30.03 in 10.0 mi SSW 10.4 mph - N/A   Clear
3:15 AM 14.0 °F 2.9 °F 5.0 °F 67% 30.04 in 10.0 mi SSW 8.1 mph 13.8 mph N/A   Clear
3:35 AM 12.2 °F -0.2 °F 5.0 °F 73% 30.04 in 10.0 mi SW 9.2 mph - N/A   Clear
3:55 AM 12.2 °F -1.0 °F 5.0 °F 73% 30.03 in 10.0 mi SW 10.4 mph - N/A   Clear
4:15 AM 12.2 °F -0.2 °F 5.0 °F 73% 30.02 in 10.0 mi SW 9.2 mph - N/A   Clear
4:35 AM 12.2 °F 0.7 °F 5.0 °F 73% 30.03 in 10.0 mi SW 8.1 mph - N/A   Clear
4:55 AM 12.2 °F 1.7 °F 5.0 °F 73% 30.02 in 10.0 mi SW 6.9 mph - N/A   Clear
5:15 AM 10.4 °F 2.2 °F 5.0 °F 79% 30.02 in 10.0 mi SW 4.6 mph - N/A   Clear
5:35 AM 10.4 °F 0.8 °F 5.0 °F 79% 30.02 in 10.0 mi SW 5.8 mph - N/A   Clear
5:55 AM 10.4 °F 0.8 °F 3.2 °F 73% 30.02 in 10.0 mi WSW 5.8 mph - N/A   Clear
6:15 AM 10.4 °F -0.4 °F 5.0 °F 79% 30.02 in 10.0 mi WSW 6.9 mph - N/A   Clear
6:35 AM 10.4 °F -0.4 °F 5.0 °F 79% 30.02 in 10.0 mi WSW 6.9 mph - N/A   Clear
6:55 AM 10.4 °F -0.4 °F 5.0 °F 79% 30.03 in 10.0 mi West 6.9 mph - N/A   Clear
7:35 AM 15.8 °F 2.7 °F 10.4 °F 79% 30.04 in 10.0 mi WNW 11.5 mph - N/A   Overcast
7:55 AM 15.8 °F 3.4 °F 12.2 °F 86% 30.04 in 10.0 mi NW 10.4 mph - N/A   Overcast
8:15 AM 17.6 °F 6.4 °F 15.8 °F 93% 30.05 in 10.0 mi WNW 9.2 mph - N/A   Overcast
8:35 AM 17.6 °F 5.7 °F 14.0 °F 86% 30.05 in 10.0 mi WNW 10.4 mph - N/A   Overcast
8:55 AM 17.6 °F 5.0 °F 15.8 °F 93% 30.06 in 10.0 mi WNW 11.5 mph - N/A   Overcast
9:15 AM 19.4 °F 7.9 °F 15.8 °F 86% 30.05 in 9.0 mi WNW 10.4 mph - N/A   Overcast
9:35 AM 21.2 °F 8.9 °F 17.6 °F 86% 30.06 in 10.0 mi WNW 12.7 mph 19.6 mph N/A   Mostly Cloudy
9:55 AM 23.0 °F 10.6 °F 19.4 °F 86% 30.07 in 10.0 mi WNW 13.8 mph - N/A   Overcast
10:15 AM 23.0 °F 11.1 °F 19.4 °F 86% 30.08 in 10.0 mi WNW 12.7 mph 21.9 mph N/A   Overcast
10:35 AM 24.8 °F 13.4 °F 19.4 °F 80% 30.09 in 10.0 mi WNW 12.7 mph 19.6 mph N/A   Overcast
10:55 AM 24.8 °F 12.9 °F 19.4 °F 80% 30.10 in 10.0 mi WNW 13.8 mph 19.6 mph N/A   Overcast
11:15 AM 26.6 °F 14.7 °F 19.4 °F 74% 30.10 in 10.0 mi West 15.0 mph - N/A   Overcast
11:35 AM 26.6 °F 14.7 °F 21.2 °F 80% 30.11 in - WNW 15.0 mph - N/A   Overcast
11:55 AM 26.6 °F 13.4 °F 21.2 °F 80% 30.10 in 10.0 mi NW 18.4 mph 28.8 mph N/A   Overcast
12:15 PM 26.6 °F 13.4 °F 21.2 °F 80% 30.11 in 10.0 mi WNW 18.4 mph 25.3 mph N/A   Overcast
12:35 PM 26.6 °F 14.3 °F 21.2 °F 80% 30.12 in 10.0 mi WNW 16.1 mph 26.5 mph N/A   Overcast
12:55 PM 28.4 °F 15.8 °F 21.2 °F 74% 30.11 in 10.0 mi WNW 18.4 mph - N/A   Overcast
1:15 PM 28.4 °F 16.2 °F 21.2 °F 74% 30.11 in 10.0 mi WNW 17.3 mph 24.2 mph N/A   Overcast
1:35 PM 28.4 °F 16.2 °F 23.0 °F 80% 30.11 in 10.0 mi WNW 17.3 mph - N/A   Overcast
1:55 PM 28.4 °F 16.6 °F 23.0 °F 80% 30.11 in 9.0 mi WNW 16.1 mph 25.3 mph N/A   Overcast
2:15 PM 28.4 °F 15.4 °F 21.2 °F 74% 30.10 in 9.0 mi NW 19.6 mph - N/A   Overcast
2:35 PM 28.4 °F 14.7 °F 19.4 °F 69% 30.11 in 10.0 mi NW 21.9 mph 27.6 mph N/A   Scattered Clouds
2:55 PM 26.6 °F 12.7 °F 17.6 °F 69% 30.11 in 10.0 mi NW 20.7 mph 28.8 mph N/A   Clear
3:15 PM 26.6 °F 11.7 °F 15.8 °F 64% 30.11 in 10.0 mi NNW 24.2 mph 29.9 mph N/A   Clear
3:35 PM 24.8 °F 10.7 °F 15.8 °F 69% 30.12 in 10.0 mi NNW 19.6 mph - N/A   Clear
3:55 PM 24.8 °F 11.1 °F 12.2 °F 59% 30.13 in 10.0 mi NNW 18.4 mph 25.3 mph N/A   Clear
4:15 PM 23.0 °F 8.3 °F 10.4 °F 59% 30.13 in 10.0 mi NNW 19.6 mph - N/A   Clear
4:35 PM 21.2 °F 6.8 °F 10.4 °F 63% 30.14 in 10.0 mi NNW 17.3 mph - N/A   Clear
4:55 PM 21.2 °F 10.9 °F 8.6 °F 58% 30.16 in 10.0 mi NW 9.2 mph 20.7 mph N/A   Clear
5:15 PM 19.4 °F 6.6 °F 8.6 °F 63% 30.16 in 10.0 mi NNW 12.7 mph - N/A   Clear
5:35 PM 17.6 °F 6.4 °F 6.8 °F 63% 30.17 in 10.0 mi North 9.2 mph - N/A   Clear
5:55 PM 15.8 °F 5.1 °F 6.8 °F 68% 30.18 in 10.0 mi North 8.1 mph - N/A   Clear
6:15 PM 14.0 °F 2.0 °F 5.0 °F 67% 30.20 in 10.0 mi NNW 9.2 mph - N/A   Clear
6:35 PM 14.0 °F 1.2 °F 5.0 °F 67% 30.20 in 10.0 mi NNW 10.4 mph - N/A   Clear
6:55 PM 12.2 °F 1.7 °F 5.0 °F 73% 30.21 in 10.0 mi NNW 6.9 mph - N/A   Clear
7:15 PM 12.2 °F -0.2 °F 3.2 °F 67% 30.21 in 10.0 mi NNW 9.2 mph - N/A   Clear
7:35 PM 10.4 °F -2.4 °F 3.2 °F 73% 30.21 in 10.0 mi North 9.2 mph - N/A   Clear
7:55 PM 10.4 °F -3.3 °F 3.2 °F 73% 30.21 in 10.0 mi North 10.4 mph - N/A   Clear
8:15 PM 10.4 °F -3.3 °F 1.4 °F 67% 30.21 in 10.0 mi North 10.4 mph - N/A   Clear
8:35 PM 10.4 °F -3.3 °F 1.4 °F 67% 30.22 in 10.0 mi NNE 10.4 mph - N/A   Clear
8:55 PM 8.6 °F -4.7 °F 1.4 °F 73% 30.22 in 10.0 mi North 9.2 mph - N/A   Clear
9:15 PM 8.6 °F -1.3 °F 1.4 °F 73% 30.24 in 10.0 mi NNE 5.8 mph - N/A   Clear
9:35 PM 8.6 °F -3.7 °F 1.4 °F 73% 30.24 in 10.0 mi NNE 8.1 mph - N/A   Clear
9:55 PM 8.6 °F -4.7 °F -0.4 °F 67% 30.24 in 10.0 mi NNE 9.2 mph - N/A   Clear
10:15 PM 6.8 °F -3.5 °F -0.4 °F 72% 30.25 in 10.0 mi NNE 5.8 mph - N/A   Clear
10:35 PM 6.8 °F -3.5 °F -0.4 °F 72% 30.25 in 10.0 mi NE 5.8 mph - N/A   Clear
10:55 PM 6.8 °F -0.1 °F 1.4 °F 79% 30.26 in 10.0 mi NE 3.5 mph - N/A   Clear
11:15 PM 5.0 °F -4.1 °F -0.4 °F 78% 30.25 in 10.0 mi NE 4.6 mph - N/A   Clear
11:35 PM 5.0 °F -8.1 °F -0.4 °F 78% 30.24 in 10.0 mi NE 8.1 mph - N/A   Clear
11:55 PM 5.0 °F - -0.4 °F 78% 30.25 in 10.0 mi Calm Calm - N/A   Clear